When you browse on this site, cookies collect data to enhance your experience and personalize the content and advertising you see.
Visit our Privacy Policy to learn more. By continuing to use the site, you agree to this use of cookies and data.
  • In Hungary
  • List of Countries
  • For 7 days
  • Water Temperature
  • Weather Map
  • News
  • Weather Widgets
  • user-avatar
    Login

    Hourly Weather Gruzinovka

    Today, 18 October, Friday

    Time Temperature Precipitation Wind Pressure Humidity
    00:00 +14°C° 0 mm 4 mps 763 mmHg 71%
    01:00 +14°C° 0 mm 4 mps 763 mmHg 74%
    02:00 +13°C° 0 mm 4 mps 763 mmHg 76%
    03:00 +12°C° 0 mm 3 mps 763 mmHg 82%
    04:00 +12°C° 0 mm 3 mps 763 mmHg 84%
    05:00 +12°C° 0 mm 3 mps 762 mmHg 86%
    06:00 +11°C° 0 mm 3 mps 762 mmHg 88%
    07:00 +12°C° 0 mm 3 mps 762 mmHg 85%
    08:00 +13°C° 0 mm 3 mps 762 mmHg 82%
    09:00 +13°C° 0 mm 3 mps 763 mmHg 78%
    10:00 +16°C° 0 mm 3 mps 762 mmHg 72%
    11:00 +17°C° 0 mm 3 mps 762 mmHg 67%
    12:00 +19°C° 0 mm 2 mps 762 mmHg 62%
    13:00 +19°C° 0 mm 2 mps 762 mmHg 59%
    14:00 +20°C° 0 mm 2 mps 762 mmHg 56%
    15:00 +20°C° 0 mm 1 mps 762 mmHg 61%
    16:00 +19°C° 0 mm 1 mps 762 mmHg 64%
    17:00 +19°C° 0 mm 1 mps 762 mmHg 66%
    18:00 +18°C° 0 mm 1 mps 761 mmHg 69%
    19:00 +18°C° 0 mm 1 mps 762 mmHg 70%
    20:00 +16°C° 0 mm 1 mps 762 mmHg 72%
    21:00 +16°C° 0 mm 1 mps 762 mmHg 74%
    22:00 +16°C° 0 mm 1 mps 762 mmHg 75%
    23:00 +15°C° 0 mm 2 mps 762 mmHg 76%

    Tomorrow, 19 October, Saturday

    Time Temperature Precipitation Wind Pressure Humidity
    00:00 +15°C° 0 mm 2 mps 762 mmHg 78%
    01:00 +15°C° 0 mm 2 mps 762 mmHg 78%
    02:00 +14°C° 0 mm 2 mps 762 mmHg 78%
    03:00 +14°C° 0 mm 2 mps 762 mmHg 78%
    04:00 +14°C° 0 mm 2 mps 762 mmHg 77%
    05:00 +13°C° 0 mm 2 mps 763 mmHg 76%
    06:00 +13°C° 0 mm 2 mps 763 mmHg 75%
    07:00 +14°C° 0 mm 2 mps 763 mmHg 71%
    08:00 +14°C° 0 mm 3 mps 763 mmHg 68%
    09:00 +16°C° 0 mm 3 mps 764 mmHg 64%
    10:00 +17°C° 0 mm 3 mps 764 mmHg 58%
    11:00 +19°C° 0 mm 3 mps 764 mmHg 52%
    12:00 +21°C° 0 mm 3 mps 764 mmHg 47%
    13:00 +21°C° 0 mm 3 mps 764 mmHg 44%
    14:00 +23°C° 0 mm 2 mps 763 mmHg 42%
    15:00 +23°C° 0 mm 2 mps 763 mmHg 40%
    16:00 +21°C° 0 mm 2 mps 763 mmHg 44%
    17:00 +20°C° 0 mm 2 mps 763 mmHg 47%
    18:00 +19°C° 0 mm 2 mps 764 mmHg 51%
    19:00 +18°C° 0 mm 2 mps 764 mmHg 53%
    20:00 +18°C° 0 mm 3 mps 764 mmHg 55%
    21:00 +17°C° 0 mm 3 mps 764 mmHg 57%
    22:00 +17°C° 0 mm 3 mps 765 mmHg 58%
    23:00 +16°C° 0 mm 3 mps 765 mmHg 60%

    Day after tomorrow, 20 October, Sunday

    Time Temperature Precipitation Wind Pressure Humidity
    00:00 +16°C° 0 mm 3 mps 765 mmHg 61%
    01:00 +14°C° 0 mm 3 mps 765 mmHg 63%
    02:00 +14°C° 0 mm 3 mps 765 mmHg 65%
    03:00 +13°C° 0 mm 3 mps 765 mmHg 66%
    04:00 +13°C° 0 mm 3 mps 765 mmHg 68%
    05:00 +13°C° 0 mm 3 mps 766 mmHg 69%
    06:00 +12°C° 0 mm 3 mps 766 mmHg 70%
    07:00 +13°C° 0 mm 4 mps 766 mmHg 67%
    08:00 +14°C° 0 mm 4 mps 766 mmHg 64%
    09:00 +15°C° 0 mm 4 mps 766 mmHg 62%
    10:00 +18°C° 0 mm 4 mps 766 mmHg 56%
    11:00 +19°C° 0 mm 4 mps 766 mmHg 51%
    12:00 +21°C° 0 mm 4 mps 766 mmHg 45%
    13:00 +21°C° 0 mm 4 mps 766 mmHg 44%
    14:00 +22°C° 0 mm 4 mps 766 mmHg 42%
    15:00 +22°C° 0 mm 4 mps 766 mmHg 40%
    16:00 +21°C° 0 mm 4 mps 766 mmHg 44%
    17:00 +20°C° 0 mm 4 mps 766 mmHg 47%
    18:00 +19°C° 0 mm 4 mps 766 mmHg 50%
    19:00 +18°C° 0 mm 4 mps 766 mmHg 52%
    20:00 +18°C° 0 mm 4 mps 766 mmHg 54%
    21:00 +17°C° 0 mm 4 mps 766 mmHg 56%
    22:00 +17°C° 0 mm 4 mps 766 mmHg 59%
    23:00 +15°C° 0 mm 4 mps 766 mmHg 62%

    21 October, Monday

    Time Temperature Precipitation Wind Pressure Humidity
    00:00 +15°C° 0 mm 4 mps 766 mmHg 65%
    01:00 +14°C° 0 mm 4 mps 766 mmHg 66%
    02:00 +14°C° 0 mm 4 mps 767 mmHg 67%
    03:00 +13°C° 0 mm 4 mps 767 mmHg 68%
    04:00 +13°C° 0 mm 4 mps 767 mmHg 71%
    05:00 +12°C° 0 mm 4 mps 767 mmHg 73%
    06:00 +12°C° 0 mm 4 mps 767 mmHg 75%
    07:00 +13°C° 0 mm 4 mps 767 mmHg 72%
    08:00 +14°C° 0 mm 5 mps 767 mmHg 70%
    09:00 +14°C° 0 mm 5 mps 767 mmHg 68%
    10:00 +16°C° 0 mm 5 mps 767 mmHg 61%
    11:00 +17°C° 0 mm 5 mps 767 mmHg 54%
    12:00 +20°C° 0 mm 5 mps 767 mmHg 47%
    13:00 +20°C° 0 mm 5 mps 767 mmHg 46%
    14:00 +21°C° 0 mm 5 mps 767 mmHg 44%
    15:00 +21°C° 0 mm 4 mps 766 mmHg 43%
    16:00 +20°C° 0 mm 4 mps 766 mmHg 46%
    17:00 +19°C° 0 mm 4 mps 766 mmHg 49%
    18:00 +18°C° 0 mm 4 mps 766 mmHg 52%
    19:00 +17°C° 0 mm 4 mps 766 mmHg 54%
    20:00 +17°C° 0 mm 4 mps 766 mmHg 56%
    21:00 +15°C° 0 mm 4 mps 767 mmHg 58%
    22:00 +14°C° 0 mm 4 mps 767 mmHg 60%
    23:00 +14°C° 0 mm 3 mps 766 mmHg 62%

    22 October, Tuesday

    Time Temperature Precipitation Wind Pressure Humidity
    00:00 +13°C° 0 mm 3 mps 766 mmHg 64%
    01:00 +13°C° 0 mm 3 mps 766 mmHg 66%
    02:00 +12°C° 0 mm 3 mps 766 mmHg 67%
    03:00 +12°C° 0 mm 3 mps 766 mmHg 69%
    04:00 +12°C° 0 mm 3 mps 766 mmHg 70%
    05:00 +11°C° 0 mm 3 mps 767 mmHg 72%
    06:00 +11°C° 0 mm 3 mps 767 mmHg 73%
    07:00 +12°C° 0 mm 3 mps 767 mmHg 69%
    08:00 +13°C° 0 mm 3 mps 767 mmHg 66%
    09:00 +13°C° 0 mm 3 mps 767 mmHg 63%
    10:00 +16°C° 0 mm 3 mps 767 mmHg 57%
    11:00 +17°C° 0 mm 3 mps 767 mmHg 51%
    12:00 +19°C° 0 mm 3 mps 767 mmHg 46%
    13:00 +20°C° 0 mm 3 mps 766 mmHg 43%
    14:00 +20°C° 0 mm 3 mps 766 mmHg 41%
    15:00 +21°C° 0 mm 3 mps 766 mmHg 39%
    16:00 +20°C° 0 mm 3 mps 766 mmHg 42%
    17:00 +19°C° 0 mm 3 mps 766 mmHg 45%
    18:00 +18°C° 0 mm 2 mps 765 mmHg 48%
    19:00 +17°C° 0 mm 2 mps 766 mmHg 50%
    20:00 +16°C° 0 mm 2 mps 766 mmHg 53%
    21:00 +16°C° 0 mm 2 mps 766 mmHg 55%
    22:00 +15°C° 0 mm 2 mps 766 mmHg 57%
    23:00 +15°C° 0 mm 2 mps 766 mmHg 59%

    23 October, Wednesday

    Time Temperature Precipitation Wind Pressure Humidity
    00:00 +14°C° 0 mm 2 mps 766 mmHg 61%
    01:00 +14°C° 0 mm 2 mps 766 mmHg 62%
    02:00 +14°C° 0 mm 2 mps 766 mmHg 62%
    03:00 +13°C° 0 mm 1 mps 766 mmHg 62%
    04:00 +13°C° 0 mm 1 mps 766 mmHg 62%
    05:00 +13°C° 0 mm 1 mps 766 mmHg 62%
    06:00 +12°C° 0 mm 1 mps 766 mmHg 62%
    07:00 +13°C° 0 mm 1 mps 766 mmHg 59%
    08:00 +14°C° 0 mm 1 mps 766 mmHg 56%
    09:00 +15°C° 0 mm 1 mps 766 mmHg 52%
    10:00 +16°C° 0 mm 1 mps 766 mmHg 49%
    11:00 +18°C° 0 mm 1 mps 766 mmHg 45%
    12:00 +20°C° 0 mm 1 mps 766 mmHg 41%
    13:00 +20°C° 0 mm 1 mps 766 mmHg 40%
    14:00 +21°C° 0 mm 1 mps 765 mmHg 38%
    15:00 +21°C° 0 mm 1 mps 765 mmHg 36%
    16:00 +21°C° 0 mm 1 mps 765 mmHg 39%
    17:00 +20°C° 0 mm 1 mps 765 mmHg 41%
    18:00 +19°C° 0 mm 1 mps 765 mmHg 44%
    19:00 +18°C° 0 mm 1 mps 765 mmHg 45%
    20:00 +18°C° 0 mm 1 mps 765 mmHg 46%
    21:00 +16°C° 0 mm 1 mps 766 mmHg 47%
    22:00 +16°C° 0 mm 1 mps 765 mmHg 48%
    23:00 +16°C° 0 mm 1 mps 765 mmHg 49%
    Show more